Flag for Germany Weather past 2 weeks in Arnstadt, Thuringia, Germany

Now
63 °F

Partly sunny.


Feels Like: 63 °F
Forecast: 50 / 61 °F
Wind: 7 mph from Southwest

Location: Erfurt-Bindersleben

Current Time: Aug 22, 2014 at 7:46:08 PM

Latest Report: Aug 22, 2014 at 7:00 PM


Visibility: 47 mi

Pressure: 29.89 "Hg

Humidity: 40%

Dew point: 38 °F

Location of ArnstadtLocation

Historic Weather in Arnstadt — Graph

°F

Arnstadt temperature yesterday

Maximum temperature yesterday: 64 °F (at 3:00 PM)
Minimum temperature yesterday: 42 °F (at 6:00 AM)
Average temperature yesterday: 54 °F

Past Weeks' High & Low Weather Summary

 TemperatureHumidityPressure
High80 °F (Aug 10, 4:00 PM)97% (Aug 8, 5:00 AM)30.06 "Hg (Aug 8, 5:00 AM)
Low42 °F (Aug 21, 6:00 AM)36% (Aug 12, 6:00 PM)29.63 "Hg (Aug 13, 4:00 PM)
Average60 °F71%29.89 "Hg
* Reported Aug 7 6:00 PM — Aug 22 6:00 PM, Arnstadt, Weather by CustomWeather, © 2014

Note: Actual official high and low records may vary slightly from our data, if they occured in-between our weather recording intervals... More about our weather records

Advertising

Arnstadt weather history for previous 24 hours

 ConditionsComfort  
Time TempWeatherWind HumidityBarometerVisibility
6:00 PM
Aug 22
64 °FPartly sunny.7 mph37%29.90 "Hg47 mi
5:00 PM64 °FPartly sunny.7 mph37%29.91 "Hg47 mi
4:00 PM65 °FOvercast.6 mph43%29.91 "Hg47 mi
3:00 PM63 °FPartly sunny.8 mph36%29.93 "Hg47 mi
2:00 PM63 °FOvercast.7 mph44%29.94 "Hg47 mi
1:00 PM64 °FOvercast.7 mph44%29.94 "Hg43 mi
12:00 PM63 °FOvercast.8 mph45%29.95 "Hg43 mi
11:00 AM62 °FPartly sunny.8 mph49%29.96 "Hg43 mi
10:00 AM60 °FPartly sunny.6 mph61%29.96 "Hg43 mi
9:00 AM54 °FScattered clouds.3 mph75%29.98 "Hg37 mi
8:00 AM50 °FPartly sunny.5 mph81%29.98 "Hg37 mi
7:00 AM47 °FScattered clouds.5 mph83%30.00 "Hg31 mi
6:00 AM47 °FPassing clouds.5 mph84%29.99 "Hg25 mi
5:00 AM47 °FClear.5 mph83%30.00 "Hg25 mi
4:00 AM47 °FClear.5 mph83%30.01 "Hg28 mi
3:00 AM47 °FClear.5 mph81%30.01 "Hg28 mi
2:00 AM48 °FClear.5 mph80%30.01 "Hg31 mi
1:00 AM49 °FPassing clouds.5 mph78%30.02 "Hg31 mi
12:00 AM51 °FPassing clouds.5 mph76%30.02 "Hg31 mi
11:00 PM
Aug 21
52 °FPassing clouds.3 mph73%30.03 "Hg37 mi
10:00 PM54 °FPassing clouds.3 mph60%30.02 "Hg31 mi
9:00 PM54 °FPassing clouds.3 mph60%30.01 "Hg37 mi
8:00 PM58 °FPassing clouds.3 mph53%30.00 "Hg47 mi
7:00 PM61 °FScattered clouds.3 mph45%29.99 "Hg47 mi
Weather by CustomWeather, © 2014

See weather overviewHow to use our weather pages